This is the latest recevied weather packets stored in our database for station/object KD0KHX-10. If no packets are shown the sender has not sent any weather packets the latest 1 day(s).
| Time | Temp. | Humidity | Pressure | Rain* | Wind** | Luminosity | Snow |
|---|---|---|---|---|---|---|---|
| 1778025303 | 6.11° C | 79% | 1007.8 hPa | 0.25 mm | 3.13 m/s, 171° | - | - |
| 1778025003 | 6.11° C | 79% | 1007.7 hPa | 0.25 mm | 3.13 m/s, 173° | - | - |
| 1778024703 | 6.11° C | 79% | 1007.8 hPa | 0 mm | 2.68 m/s, 171° | - | - |
| 1778024403 | 6.11° C | 79% | 1007.7 hPa | 0 mm | 1.79 m/s, 167° | - | - |
| 1778024103 | 6.11° C | 79% | 1007.7 hPa | 0 mm | 1.79 m/s, 165° | - | - |
| 1778023803 | 6.11° C | 79% | 1007.7 hPa | 0 mm | 2.24 m/s, 159° | - | - |
| 1778023638 | 6.11° C | 79% | 1007.7 hPa | 0 mm | 2.24 m/s, 160° | - | - |
| 1778023473 | 6.11° C | 80% | 1007.7 hPa | 0 mm | 2.24 m/s, 159° | - | - |
| 1778022903 | 6.11° C | 79% | 1007.5 hPa | 0 mm | 2.24 m/s, 158° | - | - |
| 1778022603 | 6.11° C | 80% | 1007.5 hPa | 0 mm | 2.24 m/s, 153° | - | - |
| 1778022573 | 6.11° C | 80% | 1007.5 hPa | 0 mm | 2.24 m/s, 153° | - | - |
| 1778022003 | 6.11° C | 80% | 1007.7 hPa | 0 mm | 2.24 m/s, 174° | - | - |
| 1778021703 | 6.11° C | 80% | 1007.6 hPa | 0 mm | 2.24 m/s, 168° | - | - |
| 1778021537 | 6.11° C | 80% | 1007.5 hPa | 0.25 mm | 1.79 m/s, 157° | - | - |
| 1778021103 | 6.11° C | 81% | 1007.5 hPa | 0.25 mm | 1.79 m/s, 148° | - | - |
| 1778021072 | 6.11° C | 81% | 1007.5 hPa | 0.25 mm | 1.79 m/s, 148° | - | - |
| 1778020503 | 6.11° C | 81% | 1007.4 hPa | 0.25 mm | 1.79 m/s, 148° | - | - |
| 1778020203 | 6.11° C | 81% | 1007.5 hPa | 0.25 mm | 1.34 m/s, 155° | - | - |
| 1778019903 | 6.11° C | 81% | 1007.6 hPa | 0.25 mm | 0.89 m/s, 141° | - | - |
| 1778019603 | 6.11° C | 81% | 1007.6 hPa | 0.25 mm | 1.79 m/s, 120° | - | - |
| 1778019573 | 6.11° C | 81% | 1007.5 hPa | 0.25 mm | 1.79 m/s, 119° | - | - |
| 1778019137 | 6.11° C | 81% | 1007.6 hPa | 0.25 mm | 1.79 m/s, 131° | - | - |
| 1778018703 | 6.67° C | 81% | 1007.8 hPa | 0.25 mm | 1.34 m/s, 140° | - | - |
| 1778018672 | 6.67° C | 81% | 1007.8 hPa | 0.25 mm | 1.34 m/s, 140° | - | - |
| 1778018103 | 6.67° C | 81% | 1007.9 hPa | 0.51 mm | 1.34 m/s, 106° | - | - |
* Rain latest hour (hover to see other rain measurements)
** Current wind speed in m/s (hover to see current wind gust speed)